De Queen, AR

6:58 AM CDT on July 29, 2017 (GMT -0500)
Helms Sevier County

Weather History for KDEQ - November, 2013

Change the Weather History Date:

Saturday, November 9, 2013

  Actual Average Record
Temperature  
Mean Temperature 54 °F 55 °F  
Max Temperature 57 °F 68 °F 84 °F (2005)
Min Temperature 50 °F 42 °F 18 °F (1991)
Degree Days  
Heating Degree Days 11 10  
Month to date heating degree days 107 79  
Since 1 July heating degree days 251 212  
Cooling Degree Days 0 0  
Month to date cooling degree days 0 5  
Year to date cooling degree days 2023 1939  
Growing Degree Days 4 (Base 50)    
Moisture  
Dew Point 51 °F    
Average Humidity 93    
Maximum Humidity 100    
Minimum Humidity 86    
Precipitation  
Precipitation T in 0.17 in 1.73 in (1940)
Month to date precipitation 2.22 1.52  
Year to date precipitation 31.13 41.24  
Snow  
Snow 0.00 in - - ()
Month to date snowfall 0.0  
Since 1 July snowfall 0.0  
Since 1 September snowfall 0.0  
Snow Depth 0.00 in    
Sea Level Pressure  
Sea Level Pressure 30.21 in    
Wind  
Wind Speed 2 mph (East)    
Max Wind Speed 7 mph    
Max Gust Speed 8 mph    
Visibility 8 miles    
Events Rain    
T = Trace of Precipitation, MM = Missing Value Source: NWS Daily Summary

Daily Weather History Graph

Daily Weather History Graph

Search for Another Location

Airport or City:

Trip Planner

Search our weather history database for the weather conditions in past years. The results will help you decide how hot, cold, wet, or windy it might be!

Date:

Astronomy

Nov. 09, 2013 Rise Set
Actual Time 6:44 AM CST 5:17 PM CST
Civil Twilight 6:18 AM CST 5:43 PM CST
Nautical Twilight 5:48 AM CST 6:13 PM CST
Astronomical Twilight 5:19 AM CST 6:43 PM CST
Moon 12:24 PM CST (11/9) 11:44 PM CST (11/9)
Length of Visible Light 11h 25m
Length of Day
10h 32m
Waxing Crescent, 44% of the Moon is Illuminated
Nov 9
Waxing Crescent
Nov 9
First Quarter
Nov 17
Full
Nov 25
Last Quarter
Dec 2
New

Hourly Weather History & Observations

Time (CST) Temp. Dew Point Humidity Pressure Visibility Wind Dir Wind Speed Gust Speed Precip Events Conditions
12:53 AM 51.1 °F 48.9 °F 92% 30.16 in 10.0 mi Calm Calm - 0.00 in   Mostly Cloudy
1:53 AM 51.1 °F 48.9 °F 92% 30.16 in 10.0 mi Calm Calm - N/A   Scattered Clouds
2:53 AM 51.1 °F 48.9 °F 92% 30.17 in 8.0 mi Calm Calm - 0.00 in Rain Light Rain
3:53 AM 52.0 °F 50.0 °F 93% 30.17 in 8.0 mi SSE 4.6 mph - 0.00 in Rain Light Rain
4:53 AM 51.1 °F 50.0 °F 96% 30.17 in 9.0 mi Calm Calm - 0.00 in   Clear
5:53 AM 50.0 °F 50.0 °F 100% 30.18 in 5.0 mi Calm Calm - N/A   Overcast
6:53 AM 51.1 °F 48.9 °F 92% 30.19 in 9.0 mi SE 3.5 mph - N/A   Scattered Clouds
7:53 AM 51.1 °F 48.9 °F 92% 30.21 in 8.0 mi ESE 3.5 mph - N/A   Partly Cloudy
8:53 AM 53.1 °F 50.0 °F 89% 30.22 in 9.0 mi ENE 3.5 mph - N/A   Overcast
9:53 AM 53.1 °F 51.1 °F 93% 30.23 in 6.0 mi Calm Calm - 0.00 in Rain Light Rain
10:53 AM 54.0 °F 50.0 °F 86% 30.23 in 6.0 mi Calm Calm - 0.00 in Rain Light Rain
11:53 AM 54.0 °F 51.1 °F 90% 30.22 in 8.0 mi Calm Calm - 0.00 in   Overcast
12:53 PM 55.0 °F 52.0 °F 89% 30.20 in 7.0 mi ENE 4.6 mph - 0.00 in   Overcast
1:53 PM 55.9 °F 53.1 °F 90% 30.20 in 6.0 mi ENE 4.6 mph - 0.00 in   Overcast
2:53 PM 57.0 °F 53.1 °F 87% 30.19 in 8.0 mi ENE 5.8 mph - 0.00 in   Overcast
3:53 PM 57.0 °F 53.1 °F 87% 30.19 in 9.0 mi ENE 4.6 mph - 0.00 in   Overcast
4:53 PM 55.9 °F 53.1 °F 90% 30.20 in 9.0 mi ENE 4.6 mph - N/A   Overcast
5:53 PM 55.0 °F 53.1 °F 93% 30.22 in 10.0 mi ENE 3.5 mph - N/A   Overcast
6:53 PM 55.0 °F 53.1 °F 93% 30.23 in 9.0 mi Calm Calm - N/A   Overcast
7:53 PM 55.0 °F 53.1 °F 93% 30.24 in 8.0 mi Calm Calm - N/A   Overcast
8:53 PM 54.0 °F 53.1 °F 97% 30.24 in 6.0 mi Calm Calm - N/A   Overcast
9:53 PM 54.0 °F 53.1 °F 97% 30.25 in 9.0 mi Calm Calm - N/A   Overcast
10:53 PM 54.0 °F 53.1 °F 97% 30.26 in 8.0 mi Calm Calm - N/A   Overcast
11:53 PM 54.0 °F 53.1 °F 97% 30.26 in 6.0 mi Calm Calm - N/A   Overcast